Time,TemperatureF,DewpointF,PressureIn,WindDirection,WindDirectionDegrees,WindSpeedMPH,WindSpeedGustMPH,Humidity,HourlyPrecipIn,Conditions,Clouds,dailyrainin,SoftwareType,DateUTC
2013-05-07 00:02:00,42.0,32.0,-100.00,SW,235,0.0,2.0,65,0.00,,,-99.99,,2013-05-07 06:02:00,
2013-05-07 00:12:00,41.0,31.0,-100.00,WSW,240,3.0,4.0,68,0.00,,,-99.99,,2013-05-07 06:12:00,
2013-05-07 00:22:00,42.0,32.0,-100.00,SW,230,9.0,11.0,68,0.00,,,-99.99,,2013-05-07 06:22:00,
2013-05-07 00:32:00,41.0,32.0,-100.00,SW,225,9.0,14.0,70,0.00,,,-99.99,,2013-05-07 06:32:00,
2013-05-07 00:42:00,42.0,32.0,-100.00,WSW,245,6.0,12.0,69,0.00,,,-99.99,,2013-05-07 06:42:00,
2013-05-07 00:52:00,41.0,32.0,-100.00,SW,225,4.0,13.0,69,0.00,,,-99.99,,2013-05-07 06:52:00,
2013-05-07 01:02:00,40.0,32.0,-100.00,SW,225,11.0,15.0,71,0.00,,,-99.99,,2013-05-07 07:02:00,
2013-05-07 01:11:00,40.0,31.0,-100.00,SW,220,12.0,16.0,72,0.00,,,-99.99,,2013-05-07 07:11:00,
2013-05-07 01:22:00,40.0,32.0,-100.00,SW,230,13.0,16.0,72,0.00,,,-99.99,,2013-05-07 07:22:00,
2013-05-07 01:31:00,39.0,32.0,-100.00,SW,225,12.0,16.0,73,0.00,,,-99.99,,2013-05-07 07:31:00,
2013-05-07 01:42:00,39.0,32.0,-100.00,SW,235,11.0,15.0,75,0.00,,,-99.99,,2013-05-07 07:42:00,
2013-05-07 01:52:00,40.0,34.0,-100.00,WSW,240,6.0,12.0,77,0.00,,,-99.99,,2013-05-07 07:52:00,
2013-05-07 02:02:00,41.0,35.0,-100.00,WSW,250,9.0,10.0,77,0.00,,,-99.99,,2013-05-07 08:02:00,
2013-05-07 02:11:00,42.0,35.0,-100.00,West,260,9.0,11.0,77,0.00,,,-99.99,,2013-05-07 08:11:00,
2013-05-07 02:21:00,39.0,33.0,-100.00,SW,235,7.0,9.0,79,0.00,,,-99.99,,2013-05-07 08:21:00,
2013-05-07 02:31:00,38.0,33.0,-100.00,SW,225,9.0,12.0,81,0.00,,,-99.99,,2013-05-07 08:31:00,
2013-05-07 02:41:00,37.0,32.0,-100.00,SW,230,8.0,11.0,82,0.00,,,-99.99,,2013-05-07 08:41:00,
2013-05-07 02:52:00,38.0,33.0,-100.00,SW,235,9.0,12.0,82,0.00,,,-99.99,,2013-05-07 08:52:00,
2013-05-07 03:01:00,37.0,33.0,-100.00,SW,235,11.0,13.0,82,0.00,,,-99.99,,2013-05-07 09:01:00,
2013-05-07 03:11:00,37.0,33.0,-100.00,SW,225,13.0,15.0,83,0.00,,,-99.99,,2013-05-07 09:11:00,
2013-05-07 03:22:00,38.0,33.0,-100.00,SW,225,14.0,16.0,82,0.00,,,-99.99,,2013-05-07 09:22:00,
2013-05-07 03:33:00,38.0,33.0,-100.00,SW,225,14.0,16.0,82,0.00,,,-99.99,,2013-05-07 09:33:00,
2013-05-07 03:42:00,37.0,33.0,-100.00,SW,225,11.0,17.0,83,0.00,,,-99.99,,2013-05-07 09:42:00,
2013-05-07 03:52:00,37.0,33.0,-100.00,SW,220,11.0,16.0,83,0.00,,,-99.99,,2013-05-07 09:52:00,
2013-05-07 04:03:00,38.0,33.0,-100.00,SW,225,14.0,17.0,82,0.00,,,-99.99,,2013-05-07 10:03:00,
2013-05-07 04:12:00,38.0,33.0,-100.00,SW,225,12.0,17.0,83,0.00,,,-99.99,,2013-05-07 10:12:00,
2013-05-07 04:23:00,38.0,33.0,-100.00,SW,225,13.0,16.0,84,0.00,,,-99.99,,2013-05-07 10:23:00,
2013-05-07 04:32:00,38.0,33.0,-100.00,SW,225,12.0,16.0,84,0.00,,,-99.99,,2013-05-07 10:32:00,
2013-05-07 04:42:00,38.0,34.0,-100.00,SW,225,14.0,16.0,85,0.00,,,-99.99,,2013-05-07 10:42:00,
2013-05-07 04:52:00,38.0,34.0,-100.00,SW,225,12.0,14.0,85,0.00,,,-99.99,,2013-05-07 10:52:00,
2013-05-07 05:02:00,38.0,34.0,-100.00,SW,230,12.0,16.0,85,0.00,,,-99.99,,2013-05-07 11:02:00,
2013-05-07 05:12:00,38.0,34.0,-100.00,SW,235,12.0,16.0,85,0.00,,,-99.99,,2013-05-07 11:12:00,
2013-05-07 05:22:00,38.0,34.0,-100.00,SW,230,14.0,16.0,85,0.00,,,-99.99,,2013-05-07 11:22:00,
2013-05-07 05:32:00,40.0,36.0,-100.00,SW,235,13.0,18.0,84,0.00,,,-99.99,,2013-05-07 11:32:00,
2013-05-07 05:42:00,41.0,36.0,-100.00,West,265,11.0,16.0,83,0.00,,,-99.99,,2013-05-07 11:42:00,
2013-05-07 05:51:00,40.0,36.0,-100.00,West,270,12.0,15.0,86,0.00,,,-99.99,,2013-05-07 11:51:00,
2013-05-07 06:02:00,40.0,36.0,-100.00,West,260,11.0,15.0,87,0.00,,,-99.99,,2013-05-07 12:02:00,
2013-05-07 06:11:00,40.0,36.0,-100.00,West,275,10.0,14.0,88,0.00,,,-99.99,,2013-05-07 12:11:00,
2013-05-07 06:21:00,38.0,35.0,-100.00,SW,230,7.0,11.0,88,0.00,,,-99.99,,2013-05-07 12:21:00,
2013-05-07 06:32:00,38.0,35.0,-100.00,SW,220,6.0,9.0,88,0.00,,,-99.99,,2013-05-07 12:32:00,
2013-05-07 06:42:00,38.0,35.0,-100.00,ESE,110,2.0,7.0,88,0.00,,,-99.99,,2013-05-07 12:42:00,
2013-05-07 06:52:00,39.0,35.0,-100.00,SSW,195,1.0,4.0,88,0.00,,,-99.99,,2013-05-07 12:52:00,
2013-05-07 07:02:00,39.0,36.0,-100.00,SW,230,4.0,6.0,87,0.00,,,-99.99,,2013-05-07 13:02:00,
2013-05-07 07:11:00,39.0,36.0,-100.00,SW,225,6.0,7.0,87,0.00,,,-99.99,,2013-05-07 13:11:00,
2013-05-07 07:21:00,40.0,36.0,-100.00,SW,220,7.0,10.0,87,0.00,,,-99.99,,2013-05-07 13:21:00,
2013-05-07 07:32:00,42.0,38.0,-100.00,SW,225,11.0,15.0,87,0.00,,,-99.99,,2013-05-07 13:32:00,
2013-05-07 07:42:00,42.0,39.0,-100.00,SW,220,9.0,18.0,87,0.00,,,-99.99,,2013-05-07 13:42:00,
2013-05-07 07:52:00,43.0,39.0,-100.00,SW,225,9.0,17.0,87,0.00,,,-99.99,,2013-05-07 13:52:00,
2013-05-07 08:02:00,42.0,39.0,-100.00,SW,215,6.0,14.0,87,0.00,,,-99.99,,2013-05-07 14:02:00,
2013-05-07 08:11:00,42.0,39.0,-100.00,SSW,205,4.0,11.0,87,0.00,,,-99.99,,2013-05-07 14:11:00,
2013-05-07 08:21:00,43.0,39.0,-100.00,SSW,195,5.0,10.0,86,0.00,,,-99.99,,2013-05-07 14:21:00,
2013-05-07 08:32:00,44.0,40.0,-100.00,SSW,200,6.0,10.0,85,0.00,,,-99.99,,2013-05-07 14:32:00,
2013-05-07 08:42:00,43.0,39.0,-100.00,ESE,110,2.0,11.0,85,0.00,,,-99.99,,2013-05-07 14:42:00,
2013-05-07 08:52:00,44.0,40.0,-100.00,South,185,3.0,7.0,84,0.00,,,-99.99,,2013-05-07 14:52:00,
2013-05-07 09:01:00,44.0,39.0,-100.00,East,90,4.0,7.0,84,0.00,,,-99.99,,2013-05-07 15:01:00,
2013-05-07 09:12:00,44.0,39.0,-100.00,ESE,110,4.0,7.0,83,0.00,,,-99.99,,2013-05-07 15:12:00,
2013-05-07 09:21:00,44.0,39.0,-100.00,East,80,4.0,7.0,83,0.00,,,-99.99,,2013-05-07 15:21:00,
2013-05-07 09:33:00,44.0,39.0,-100.00,South,175,7.0,15.0,82,0.00,,,-99.99,,2013-05-07 15:33:00,
2013-05-07 09:42:00,45.0,40.0,-100.00,SSW,205,9.0,15.0,82,0.00,,,-99.99,,2013-05-07 15:42:00,
2013-05-07 09:53:00,45.0,40.0,-100.00,SW,225,6.0,17.0,82,0.00,,,-99.99,,2013-05-07 15:53:00,
2013-05-07 10:03:00,45.0,40.0,-100.00,SW,230,10.0,17.0,79,0.00,,,-99.99,,2013-05-07 16:03:00,
2013-05-07 10:12:00,46.0,40.0,-100.00,WSW,245,13.0,17.0,78,0.00,,,-99.99,,2013-05-07 16:12:00,
2013-05-07 10:22:00,47.0,39.0,-100.00,WSW,245,14.0,21.0,74,0.00,,,-99.99,,2013-05-07 16:22:00,
2013-05-07 10:32:00,47.0,39.0,-100.00,SW,235,15.0,22.0,72,0.00,,,-99.99,,2013-05-07 16:32:00,
2013-05-07 10:41:00,47.0,39.0,-100.00,SW,235,14.0,19.0,72,0.00,,,-99.99,,2013-05-07 16:41:00,
2013-05-07 10:51:00,47.0,38.0,-100.00,WSW,240,17.0,22.0,71,0.00,,,-99.99,,2013-05-07 16:51:00,
2013-05-07 11:01:00,47.0,39.0,-100.00,WSW,240,17.0,22.0,71,0.00,,,-99.99,,2013-05-07 17:01:00,
2013-05-07 11:12:00,49.0,40.0,-100.00,WSW,245,16.0,26.0,71,0.00,,,-99.99,,2013-05-07 17:12:00,
2013-05-07 11:21:00,50.0,40.0,-100.00,West,270,20.0,24.0,68,0.00,,,-99.99,,2013-05-07 17:21:00,
2013-05-07 11:31:00,51.0,40.0,-100.00,SW,225,16.0,25.0,65,0.00,,,-99.99,,2013-05-07 17:31:00,
2013-05-07 11:41:00,51.0,38.0,-100.00,WSW,240,18.0,25.0,63,0.00,,,-99.99,,2013-05-07 17:41:00,
2013-05-07 11:52:00,50.0,38.0,-100.00,WSW,245,17.0,29.0,62,0.00,,,-99.99,,2013-05-07 17:52:00,
2013-05-07 12:01:00,50.0,38.0,-100.00,West,260,18.0,22.0,63,0.00,,,-99.99,,2013-05-07 18:01:00,
2013-05-07 12:21:00,52.0,38.0,-100.00,West,270,18.0,24.0,60,0.00,,,-99.99,,2013-05-07 18:21:00,
2013-05-07 12:31:00,52.0,38.0,-100.00,West,265,16.0,22.0,58,0.00,,,-99.99,,2013-05-07 18:31:00,
2013-05-07 12:41:00,51.0,38.0,-100.00,WSW,245,14.0,26.0,60,0.00,,,-99.99,,2013-05-07 18:41:00,
2013-05-07 12:51:00,53.0,39.0,-100.00,WSW,245,18.0,24.0,57,0.00,,,-99.99,,2013-05-07 18:51:00,
2013-05-07 13:02:00,53.0,39.0,-100.00,West,270,19.0,26.0,57,0.00,,,-99.99,,2013-05-07 19:02:00,
2013-05-07 13:11:00,53.0,40.0,-100.00,West,270,21.0,29.0,59,0.00,,,-99.99,,2013-05-07 19:11:00,
2013-05-07 13:21:00,54.0,39.0,-100.00,West,270,19.0,26.0,57,0.00,,,-99.99,,2013-05-07 19:21:00,
2013-05-07 13:32:00,53.0,38.0,-100.00,WSW,245,20.0,27.0,55,0.00,,,-99.99,,2013-05-07 19:32:00,
2013-05-07 13:42:00,55.0,38.0,-100.00,West,270,20.0,29.0,52,0.00,,,-99.99,,2013-05-07 19:42:00,
2013-05-07 13:52:00,53.0,37.0,-100.00,WSW,240,20.0,27.0,54,0.00,,,-99.99,,2013-05-07 19:52:00,
2013-05-07 14:02:00,55.0,38.0,-100.00,West,270,17.0,23.0,53,0.00,,,-99.99,,2013-05-07 20:02:00,
2013-05-07 14:11:00,56.0,38.0,-100.00,SW,235,15.0,22.0,51,0.00,,,-99.99,,2013-05-07 20:11:00,
2013-05-07 14:21:00,57.0,39.0,-100.00,West,270,12.0,26.0,51,0.00,,,-99.99,,2013-05-07 20:21:00,
2013-05-07 14:32:00,55.0,37.0,-100.00,WSW,240,17.0,25.0,51,0.00,,,-99.99,,2013-05-07 20:32:00,
2013-05-07 14:42:00,55.0,37.0,-100.00,SW,235,16.0,22.0,50,0.00,,,-99.99,,2013-05-07 20:42:00,
2013-05-07 14:51:00,55.0,37.0,-100.00,West,265,20.0,24.0,50,0.00,,,-99.99,,2013-05-07 20:51:00,
2013-05-07 15:01:00,55.0,36.0,-100.00,West,260,14.0,22.0,49,0.00,,,-99.99,,2013-05-07 21:01:00,
2013-05-07 15:11:00,54.0,36.0,-100.00,West,270,19.0,24.0,48,0.00,,,-99.99,,2013-05-07 21:11:00,
2013-05-07 15:21:00,54.0,36.0,-100.00,WSW,255,15.0,22.0,50,0.00,,,-99.99,,2013-05-07 21:21:00,
2013-05-07 15:32:00,56.0,37.0,-100.00,WSW,240,19.0,23.0,49,0.00,,,-99.99,,2013-05-07 21:32:00,
2013-05-07 15:52:00,55.0,36.0,-100.00,WSW,250,14.0,22.0,47,0.00,,,-99.99,,2013-05-07 21:52:00,
2013-05-07 16:02:00,55.0,36.0,-100.00,West,270,14.0,20.0,47,0.00,,,-99.99,,2013-05-07 22:02:00,
2013-05-07 16:13:00,57.0,37.0,-100.00,West,280,16.0,21.0,47,0.00,,,-99.99,,2013-05-07 22:13:00,
2013-05-07 16:22:00,54.0,36.0,-100.00,WSW,240,14.0,22.0,50,0.00,,,-99.99,,2013-05-07 22:22:00,
2013-05-07 16:33:00,54.0,35.0,-100.00,West,260,16.0,21.0,49,0.00,,,-99.99,,2013-05-07 22:33:00,
2013-05-07 16:42:00,54.0,36.0,-100.00,WSW,240,12.0,19.0,49,0.00,,,-99.99,,2013-05-07 22:42:00,
2013-05-07 16:52:00,54.0,36.0,-100.00,SW,230,18.0,24.0,49,0.00,,,-99.99,,2013-05-07 22:52:00,
2013-05-07 17:02:00,55.0,36.0,-100.00,SW,235,14.0,22.0,48,0.00,,,-99.99,,2013-05-07 23:02:00,
2013-05-07 17:12:00,56.0,36.0,-100.00,WSW,245,11.0,20.0,47,0.00,,,-99.99,,2013-05-07 23:12:00,
2013-05-07 17:21:00,57.0,36.0,-100.00,West,275,12.0,18.0,46,0.00,,,-99.99,,2013-05-07 23:21:00,
2013-05-07 17:32:00,57.0,36.0,-100.00,West,275,13.0,21.0,45,0.00,,,-99.99,,2013-05-07 23:32:00,
2013-05-07 17:41:00,57.0,36.0,-100.00,West,270,12.0,22.0,45,0.00,,,-99.99,,2013-05-07 23:41:00,
2013-05-07 17:52:00,56.0,35.0,-100.00,West,270,11.0,16.0,45,0.00,,,-99.99,,2013-05-07 23:52:00,
2013-05-07 18:02:00,56.0,35.0,-100.00,WNW,285,9.0,16.0,45,0.00,,,-99.99,,2013-05-08 00:02:00,
2013-05-07 18:11:00,57.0,36.0,-100.00,WNW,285,7.0,14.0,44,0.00,,,-99.99,,2013-05-08 00:11:00,
2013-05-07 18:21:00,57.0,35.0,-100.00,WNW,295,6.0,12.0,44,0.00,,,-99.99,,2013-05-08 00:21:00,
2013-05-07 18:32:00,57.0,35.0,-100.00,NW,305,6.0,11.0,43,0.00,,,-99.99,,2013-05-08 00:32:00,
2013-05-07 18:42:00,56.0,35.0,-100.00,NNW,330,5.0,10.0,43,0.00,,,-99.99,,2013-05-08 00:42:00,
2013-05-07 18:51:00,50.0,38.0,-100.00,NE,55,12.0,19.0,61,0.00,,,-99.99,,2013-05-08 00:51:00,
2013-05-07 19:02:00,49.0,39.0,-100.00,ENE,70,11.0,19.0,68,0.00,,,-99.99,,2013-05-08 01:02:00,
2013-05-07 19:11:00,49.0,40.0,-100.00,East,95,10.0,17.0,70,0.00,,,-99.99,,2013-05-08 01:11:00,
2013-05-07 19:21:00,48.0,40.0,-100.00,SE,135,10.0,14.0,76,0.00,,,-99.99,,2013-05-08 01:21:00,
2013-05-07 19:32:00,47.0,42.0,-100.00,East,90,6.0,13.0,84,0.00,,,-99.99,,2013-05-08 01:32:00,
2013-05-07 19:42:00,47.0,43.0,-100.00,SE,135,7.0,10.0,88,0.00,,,-99.99,,2013-05-08 01:42:00,
2013-05-07 19:52:00,46.0,43.0,-100.00,ESE,115,6.0,9.0,89,0.00,,,-99.99,,2013-05-08 01:52:00,
2013-05-07 20:01:00,46.0,43.0,-100.00,ESE,120,4.0,9.0,88,0.00,,,-99.99,,2013-05-08 02:01:00,
2013-05-07 20:12:00,46.0,42.0,-100.00,NNE,15,1.0,4.0,87,0.00,,,-99.99,,2013-05-08 02:12:00,
2013-05-07 20:22:00,46.0,42.0,-100.00,SSW,210,0.0,2.0,87,0.00,,,-99.99,,2013-05-08 02:22:00,
2013-05-07 20:32:00,46.0,42.0,-100.00,SW,230,0.0,2.0,85,0.00,,,-99.99,,2013-05-08 02:32:00,
2013-05-07 20:42:00,45.0,41.0,-100.00,SW,225,1.0,4.0,83,0.00,,,-99.99,,2013-05-08 02:42:00,
2013-05-07 20:52:00,45.0,41.0,-100.00,NW,315,1.0,3.0,83,0.00,,,-99.99,,2013-05-08 02:52:00,
2013-05-07 21:02:00,46.0,40.0,-100.00,WNW,300,0.0,2.0,81,0.00,,,-99.99,,2013-05-08 03:02:00,
2013-05-07 21:11:00,46.0,40.0,-100.00,NE,40,4.0,6.0,80,0.00,,,-99.99,,2013-05-08 03:11:00,
2013-05-07 21:21:00,45.0,40.0,-100.00,NE,50,4.0,6.0,82,0.00,,,-99.99,,2013-05-08 03:21:00,
2013-05-07 21:32:00,45.0,41.0,-100.00,NE,45,6.0,11.0,87,0.00,,,-99.99,,2013-05-08 03:32:00,
2013-05-07 21:43:00,44.0,42.0,-100.00,NE,45,4.0,8.0,89,0.00,,,-99.99,,2013-05-08 03:43:00,
2013-05-07 21:52:00,44.0,40.0,-100.00,NNE,30,5.0,9.0,88,0.00,,,-99.99,,2013-05-08 03:52:00,
2013-05-07 22:02:00,43.0,40.0,-100.00,North,10,1.0,7.0,88,0.00,,,-99.99,,2013-05-08 04:02:00,
2013-05-07 22:13:00,43.0,40.0,-100.00,NNW,335,2.0,4.0,89,0.00,,,-99.99,,2013-05-08 04:13:00,
2013-05-07 22:23:00,43.0,40.0,-100.00,West,275,2.0,4.0,89,0.00,,,-99.99,,2013-05-08 04:23:00,
2013-05-07 22:33:00,43.0,41.0,-100.00,WSW,250,5.0,7.0,90,0.00,,,-99.99,,2013-05-08 04:33:00,
2013-05-07 22:42:00,43.0,40.0,-100.00,WSW,240,9.0,10.0,90,0.00,,,-99.99,,2013-05-08 04:42:00,
2013-05-07 22:52:00,43.0,41.0,-100.00,WSW,255,11.0,14.0,93,0.03,,,-99.99,,2013-05-08 04:52:00,
2013-05-07 23:02:00,43.0,42.0,-100.00,SW,225,11.0,14.0,96,0.03,,,-99.99,,2013-05-08 05:02:00,
2013-05-07 23:12:00,42.0,41.0,-100.00,SW,230,12.0,16.0,95,0.00,,,-99.99,,2013-05-08 05:12:00,
2013-05-07 23:22:00,42.0,40.0,-100.00,SW,225,14.0,17.0,94,0.00,,,-99.99,,2013-05-08 05:22:00,
2013-05-07 23:32:00,42.0,40.0,-100.00,SW,230,13.0,19.0,94,0.00,,,-99.99,,2013-05-08 05:32:00,
2013-05-07 23:42:00,42.0,40.0,-100.00,SW,230,16.0,19.0,93,0.00,,,-99.99,,2013-05-08 05:42:00,
2013-05-07 23:52:00,42.0,40.0,-100.00,SW,235,16.0,21.0,92,0.00,,,-99.99,,2013-05-08 05:52:00,